Location: Unspecified
(0.0000°N, 0.0000°E)
Time: 02:38:59
(UTC+00:00)

Envisat - Pass Details

Date: 23 April 2019
Orbit: 764 x 766 km, 98.2° (Epoch: 22 May)

Event Time Altitude Azimuth Distance (km) Brightness Sun altitude
Rises 18:37:37 0° 158° (SSE) 3,231 5.9 -9.6°
Reaches altitude 10° 18:39:59 10° 153° (SSE) 2,303 5.1 -10.2°
Maximum altitude 18:44:54 51° 78° (ENE) 960 3.2 -11.4°
Drops below altitude 10° 18:49:47 10° 3° (N) 2,293 5.6 -12.5°
Sets 18:52:08 0° 358° (N) 3,216 6.4 -13.1°
